Flag for U.S.A. Weather past 2 weeks in Tampa, Florida, U.S.A.

Now
75 °F

Scattered clouds.


Feels Like: 78 °F
Forecast: 67 / 85 °F
Wind: 7 mph from Northeast

Location: Tampa International Airport

Current Time: Oct 22, 2014 at 10:53:38 AM

Latest Report: Oct 22, 2014 at 9:53 AM


Visibility: 10 mi

Pressure: 30.00 "Hg

Humidity: 52%

Dew point: 56 °F

Location of TampaLocation

Historic Weather in Tampa — Graph

°F

Tampa temperature yesterday

Maximum temperature yesterday: 83 °F (at 1:53 PM)
Minimum temperature yesterday: 71 °F (at 5:53 AM)
Average temperature yesterday: 76 °F

Past Weeks' High & Low Weather Summary

 TemperatureHumidityPressure
High89 °F (Oct 9, 2:53 PM)94% (Oct 14, 5:55 PM)30.15 "Hg (Oct 14, 5:55 PM)
Low62 °F (Oct 18, 3:53 AM)37% (Oct 17, 2:53 PM)29.91 "Hg (Oct 16, 4:53 AM)
Average77 °F68%30.01 "Hg
* Reported Oct 7 8:53 AM — Oct 22 8:53 AM, Tampa, Weather by CustomWeather, © 2014

Note: Actual official high and low records may vary slightly from our data, if they occured in-between our weather recording intervals... More about our weather records

Advertising

Tampa weather history for previous 24 hours

 ConditionsComfort  
Time TempWeatherWind HumidityBarometerVisibility
8:53 AM
Oct 22
71 °FPassing clouds.6 mph71%29.98 "Hg10 mi
7:53 AM68 °FPassing clouds.5 mph82%29.97 "Hg9 mi
6:53 AM69 °FPassing clouds.5 mph81%29.97 "Hg10 mi
5:53 AM70 °FPassing clouds.5 mph81%29.95 "Hg10 mi
4:53 AM70 °FPassing clouds.3 mph84%29.94 "Hg10 mi
3:53 AM71 °FPassing clouds.5 mph84%29.93 "Hg9 mi
2:53 AM71 °FPassing clouds.7 mph87%29.93 "Hg9 mi
1:53 AM71 °FPassing clouds.5 mph84%29.95 "Hg10 mi
12:53 AM71 °FPassing clouds.3 mph84%29.95 "Hg10 mi
11:53 PM
Oct 21
72 °FPassing clouds.5 mph78%29.96 "Hg10 mi
10:53 PM73 °FHigh level clouds.5 mph74%29.97 "Hg10 mi
9:53 PM74 °FHigh level clouds.3 mph71%29.96 "Hg10 mi
8:53 PM75 °FHigh level clouds.3 mph66%29.94 "Hg10 mi
7:53 PM77 °FHigh level clouds.6 mph62%29.93 "Hg10 mi
6:53 PM80 °FHigh level clouds.6 mph58%29.92 "Hg10 mi
5:53 PM80 °FMore clouds than sun.6 mph60%29.91 "Hg10 mi
4:53 PM83 °FMore clouds than sun.6 mph53%29.91 "Hg10 mi
3:53 PM81 °FOvercast.5 mph54%29.91 "Hg10 mi
2:53 PM82 °FOvercast.6 mph49%29.92 "Hg10 mi
1:53 PM83 °FMore clouds than sun.8 mph51%29.94 "Hg8 mi
12:53 PM81 °FBroken clouds.6 mph58%29.96 "Hg10 mi
11:53 AM81 °FPartly sunny.3 mph54%29.97 "Hg10 mi
10:53 AM79 °FBroken clouds.5 mph60%29.98 "Hg10 mi
Weather by CustomWeather, © 2014

See weather overviewHow to use our weather pages